Weather in Svitlodarsk

Ukraine / Donetsk Region     48°26′06″N   38°13′12″E
temp.,
°C
wind,
m/s
gust,
m/s
humid.,
%
clouds,
%
prec.,
mm/h
press.,
hPa
HPBL,
m
19 january, tue
tue1923:00−15ssw229699 0.1 101820
02:00−16sw339895 0.1 101842
05:00−18sw3496100 0.0 101986
08:00−19wsw359797 0.0 1019113
11:00−16wsw359591 0.0 1020251
14:00−14wsw469595 0.1 1019335
17:00−16wsw369799 0.1 1021126
20:00−15w369699 0.1 1022207
20 january, wed
wed2023:00−16w339792 0.1 102264
02:00−18w239991 0.1 102326
05:00−20w2210077 0.0 102420
08:00−20wsw229864 0.0 102620
11:00−15w23909 0.0 1027219
14:00−14w239047 0.0 1026293
17:00−19wsw119830 0.0 102820
20:00−19sw119615 0.0 102920
21 january, thu
thu2123:00−20ssw12940 0.0 103020
02:00−19s22920 0.0 103020
05:00−18s22920 0.0 103020
08:00−17s33930 0.0 103154
11:00−11s58945 0.0 1031221
14:00−9s599425 0.0 1029233
17:00−11s6119462 0.0 1029243
20:00−7s5119580 0.1 1028290
22 january, fri
fri2223:00−4s6129590 0.0 1027255
02:00−1ssw7139768 0.0 1026383
05:00+1sw6139897 0.0 1024448
08:00+2sw6139895 0.0 1024435
11:00+2sw61410076 0.0 1024527
14:00+2ssw6129984 0.0 1023316
17:00+2ssw7129797 0.0 1023413
20:00+2ssw7149598 0.0 1023440
23 january, sat
sat2323:00+2s81595100 0.0 1022404
02:00+1s8159397 0.0 1022444
05:000s81691100 0.0 1021373
08:00+1s8169091 0.0 1021370
11:00+2s9169482 0.0 1020409
14:00+3s9169778 0.0 1019446
17:00+3s8159590 0.0 1019362
20:00+3s7159495 0.0 1019304